owner,sensor,date,latitude,longitude,vertical_datum,direction_of_sea_water_velocity,sea_water_speed,upward_sea_water_velocity,qcFlag 
TABS,ioos:station:wmo:42045:1,2013-03-01T00:00:00Z,26.2168,-96.4998,2.0,249.0862422,15.5761388,-99999.0,'11111222,11111222,99999999' 
TABS,ioos:station:wmo:42045:1,2013-03-01T00:30:00Z,26.2168,-96.4998,2.0,237.7717549,12.28228806,-99999.0,'11111222,11111222,99999999' 
TABS,ioos:station:wmo:42045:1,2013-03-01T01:00:00Z,26.2168,-96.4998,2.0,267.2228656,11.35332991,-99999.0,'11111222,11111222,99999999' 
TABS,ioos:station:wmo:42045:1,2013-03-01T01:30:00Z,26.2168,-96.4998,2.0,216.5465845,8.514135305,-99999.0,'11133222,11111222,99999999' 
TABS,ioos:station:wmo:42045:1,2013-03-01T02:00:00Z,26.2168,-96.4998,2.0,240.331238,11.15197292,-99999.0,'11111222,11111222,99999999' 
TABS,ioos:station:wmo:42045:1,2013-03-01T02:30:00Z,26.2168,-96.4998,2.0,258.1971725,11.63600017,-99999.0,'11111222,11111222,99999999' 
TABS,ioos:station:wmo:42045:1,2013-03-01T03:00:00Z,26.2168,-96.4998,2.0,289.4574854,18.61296591,-99999.0,'11111222,11111222,99999999' 
TABS,ioos:station:wmo:42045:1,2013-03-01T03:30:00Z,26.2168,-96.4998,2.0,293.7927871,17.1035815,-99999.0,'11111222,11111222,99999999' 
TABS,ioos:station:wmo:42045:1,2013-03-01T04:00:00Z,26.2168,-96.4998,2.0,286.1447219,11.07682265,-99999.0,'11111222,11111222,99999999' 
TABS,ioos:station:wmo:42045:1,2013-03-01T04:30:00Z,26.2168,-96.4998,2.0,275.7701637,15.41810948,-99999.0,'11111222,11111222,99999999' 
TABS,ioos:station:wmo:42045:1,2013-03-01T05:00:00Z,26.2168,-96.4998,2.0,257.1577128,6.748807302,-99999.0,'11133222,11111222,99999999' 
TABS,ioos:station:wmo:42045:1,2013-03-01T05:30:00Z,26.2168,-96.4998,2.0,275.3738061,16.23132773,-99999.0,'11111222,11111222,99999999' 
TABS,ioos:station:wmo:42045:1,2013-03-01T06:00:00Z,26.2168,-96.4998,2.0,285.2437074,12.77961267,-99999.0,'11111222,11111222,99999999' 
TABS,ioos:station:wmo:42045:1,2013-03-01T06:30:00Z,26.2168,-96.4998,2.0,250.9470049,9.680294417,-99999.0,'11133222,11111222,99999999' 
TABS,ioos:station:wmo:42045:1,2013-03-01T07:00:00Z,26.2168,-96.4998,2.0,244.540089,12.98055469,-99999.0,'11111222,11111222,99999999' 
TABS,ioos:station:wmo:42045:1,2013-03-01T07:30:00Z,26.2168,-96.4998,2.0,219.5703475,8.743712026,-99999.0,'11133222,11111222,99999999' 
TABS,ioos:station:wmo:42045:1,2013-03-01T08:00:00Z,26.2168,-96.4998,2.0,248.5749645,10.73156559,-99999.0,'11111222,11111222,99999999' 
TABS,ioos:station:wmo:42045:1,2013-03-01T08:30:00Z,26.2168,-96.4998,2.0,230.0963509,15.76008249,-99999.0,'11111222,11111222,99999999' 
TABS,ioos:station:wmo:42045:1,2013-03-01T09:00:00Z,26.2168,-96.4998,2.0,240.9688368,9.355426233,-99999.0,'11133222,11111222,99999999' 
TABS,ioos:station:wmo:42045:1,2013-03-01T09:30:00Z,26.2168,-96.4998,2.0,236.9996284,16.12075681,-99999.0,'11111222,11111222,99999999' 
TABS,ioos:station:wmo:42045:1,2013-03-01T10:00:00Z,26.2168,-96.4998,2.0,231.2511789,13.11704997,-99999.0,'11111222,11111222,99999999' 
TABS,ioos:station:wmo:42045:1,2013-03-01T10:30:00Z,26.2168,-96.4998,2.0,227.5748214,12.74786649,-99999.0,'11111222,11111222,99999999' 
TABS,ioos:station:wmo:42045:1,2013-03-01T11:00:00Z,26.2168,-96.4998,2.0,216.2554845,15.86091107,-99999.0,'11111222,11111222,99999999' 
TABS,ioos:station:wmo:42045:1,2013-03-01T11:30:00Z,26.2168,-96.4998,2.0,237.0452885,15.55230208,-99999.0,'11111222,11111222,99999999' 
TABS,ioos:station:wmo:42045:1,2013-03-01T12:00:00Z,26.2168,-96.4998,2.0,228.1693197,17.64809905,-99999.0,'11111222,11111222,99999999' 
TABS,ioos:station:wmo:42045:1,2013-03-01T12:30:00Z,26.2168,-96.4998,2.0,238.0510794,14.96717742,-99999.0,'11111222,11111222,99999999' 
TABS,ioos:station:wmo:42045:1,2013-03-01T13:00:00Z,26.2168,-96.4998,2.0,238.2834626,15.54082688,-99999.0,'11111222,11111222,99999999' 
TABS,ioos:station:wmo:42045:1,2013-03-01T13:30:00Z,26.2168,-96.4998,2.0,255.3557691,17.83949831,-99999.0,'11111222,11111222,99999999' 
TABS,ioos:station:wmo:42045:1,2013-03-01T14:00:00Z,26.2168,-96.4998,2.0,255.0398176,18.20708928,-99999.0,'11111222,11111222,99999999' 
TABS,ioos:station:wmo:42045:1,2013-03-01T14:30:00Z,26.2168,-96.4998,2.0,257.7271112,18.91218655,-99999.0,'11111222,11111222,99999999' 
TABS,ioos:station:wmo:42045:1,2013-03-01T15:00:00Z,26.2168,-96.4998,2.0,253.2226647,18.36154678,-99999.0,'11111222,11111222,99999999' 
TABS,ioos:station:wmo:42045:1,2013-03-01T15:30:00Z,26.2168,-96.4998,2.0,271.521187,18.08637056,-99999.0,'11111222,11111222,99999999' 
TABS,ioos:station:wmo:42045:1,2013-03-01T16:00:00Z,26.2168,-96.4998,2.0,281.2448326,18.87226801,-99999.0,'11111222,11111222,99999999' 
TABS,ioos:station:wmo:42045:1,2013-03-01T16:30:00Z,26.2168,-96.4998,2.0,291.4413149,16.8243306,-99999.0,'11111222,11111222,99999999' 
TABS,ioos:station:wmo:42045:1,2013-03-01T17:00:00Z,26.2168,-96.4998,2.0,288.1187793,17.17142976,-99999.0,'11111222,11111222,99999999' 
TABS,ioos:station:wmo:42045:1,2013-03-01T17:30:00Z,26.2168,-96.4998,2.0,282.2203617,16.29930673,-99999.0,'11111222,11111222,99999999' 
TABS,ioos:station:wmo:42045:1,2013-03-01T18:00:00Z,26.2168,-96.4998,2.0,298.076298,19.50529415,-99999.0,'11111222,11111222,99999999' 
TABS,ioos:station:wmo:42045:1,2013-03-01T18:30:00Z,26.2168,-96.4998,2.0,290.0847454,19.33585271,-99999.0,'11111222,11111222,99999999' 
TABS,ioos:station:wmo:42045:1,2013-03-01T19:00:00Z,26.2168,-96.4998,2.0,298.4822559,18.85165775,-99999.0,'11111222,11111222,99999999' 
TABS,ioos:station:wmo:42045:1,2013-03-01T19:30:00Z,26.2168,-96.4998,2.0,293.5361668,19.63327787,-99999.0,'11111222,11111222,99999999' 
TABS,ioos:station:wmo:42045:1,2013-03-01T20:00:00Z,26.2168,-96.4998,2.0,305.9053157,16.86439148,-99999.0,'11111222,11111222,99999999' 
TABS,ioos:station:wmo:42045:1,2013-03-01T20:30:00Z,26.2168,-96.4998,2.0,294.8850456,15.70842449,-99999.0,'11111222,11111222,99999999' 
TABS,ioos:station:wmo:42045:1,2013-03-01T21:00:00Z,26.2168,-96.4998,2.0,297.471911,14.13371855,-99999.0,'11111222,11111222,99999999' 
TABS,ioos:station:wmo:42045:1,2013-03-01T21:30:00Z,26.2168,-96.4998,2.0,286.5969265,10.15297493,-99999.0,'11111222,11111222,99999999' 
TABS,ioos:station:wmo:42045:1,2013-03-01T22:00:00Z,26.2168,-96.4998,2.0,292.301028,9.80322906,-99999.0,'11133222,11111222,99999999' 
TABS,ioos:station:wmo:42045:1,2013-03-01T22:30:00Z,26.2168,-96.4998,2.0,312.5588306,12.44930922,-99999.0,'11111222,11111222,99999999' 
TABS,ioos:station:wmo:42045:1,2013-03-01T23:00:00Z,26.2168,-96.4998,2.0,298.7449011,10.23070379,-99999.0,'11111222,11111222,99999999' 
TABS,ioos:station:wmo:42045:1,2013-03-01T23:30:00Z,26.2168,-96.4998,2.0,307.7664161,10.61329826,-99999.0,'11111222,11111222,99999999' 
TABS,ioos:station:wmo:42045:1,2013-03-02T00:00:00Z,26.2168,-96.4998,2.0,311.6699471,7.911744435,-99999.0,'11133222,11111222,99999999' 
TABS,ioos:station:wmo:42045:1,2013-03-02T00:30:00Z,26.2168,-96.4998,2.0,331.9499865,7.591765276,-99999.0,'11133222,11111222,99999999' 
TABS,ioos:station:wmo:42045:1,2013-03-02T01:00:00Z,26.2168,-96.4998,2.0,343.517497,6.590849718,-99999.0,'11133222,11111222,99999999' 
TABS,ioos:station:wmo:42045:1,2013-03-02T01:30:00Z,26.2168,-96.4998,2.0,1.378190483,8.732525408,-99999.0,'11133222,11111222,99999999' 
TABS,ioos:station:wmo:42045:1,2013-03-02T02:00:00Z,26.2168,-96.4998,2.0,352.091719,11.70129053,-99999.0,'11111222,11111222,99999999' 
TABS,ioos:station:wmo:42045:1,2013-03-02T02:30:00Z,26.2168,-96.4998,2.0,356.2103669,7.867204078,-99999.0,'11133222,11111222,99999999' 
TABS,ioos:station:wmo:42045:1,2013-03-02T03:00:00Z,26.2168,-96.4998,2.0,7.912343191,6.320166137,-99999.0,'11133222,11111222,99999999' 
TABS,ioos:station:wmo:42045:1,2013-03-02T03:30:00Z,26.2168,-96.4998,2.0,26.25273256,9.020432362,-99999.0,'11133222,11111222,99999999' 
TABS,ioos:station:wmo:42045:1,2013-03-02T04:00:00Z,26.2168,-96.4998,2.0,37.12755623,9.344094392,-99999.0,'11133222,11111222,99999999' 
TABS,ioos:station:wmo:42045:1,2013-03-02T04:30:00Z,26.2168,-96.4998,2.0,35.93557894,8.707157975,-99999.0,'11133222,11111222,99999999' 
TABS,ioos:station:wmo:42045:1,2013-03-02T05:00:00Z,26.2168,-96.4998,2.0,38.00584622,8.071585966,-99999.0,'11133222,11111222,99999999' 
TABS,ioos:station:wmo:42045:1,2013-03-02T05:30:00Z,26.2168,-96.4998,2.0,40.95449775,7.216328706,-99999.0,'11133222,11111222,99999999' 
TABS,ioos:station:wmo:42045:1,2013-03-02T06:00:00Z,26.2168,-96.4998,2.0,69.70909122,11.13073223,-99999.0,'11111222,11111222,99999999' 
TABS,ioos:station:wmo:42045:1,2013-03-02T06:30:00Z,26.2168,-96.4998,2.0,60.29446323,10.85676287,-99999.0,'11111222,11111222,99999999' 
TABS,ioos:station:wmo:42045:1,2013-03-02T07:00:00Z,26.2168,-96.4998,2.0,67.1263883,11.80857739,-99999.0,'11111222,11111222,99999999' 
TABS,ioos:station:wmo:42045:1,2013-03-02T07:30:00Z,26.2168,-96.4998,2.0,72.40761658,11.18302285,-99999.0,'11111222,11111222,99999999' 
TABS,ioos:station:wmo:42045:1,2013-03-02T08:00:00Z,26.2168,-96.4998,2.0,55.53926431,17.31930715,-99999.0,'11111222,11111222,99999999' 
TABS,ioos:station:wmo:42045:1,2013-03-02T08:30:00Z,26.2168,-96.4998,2.0,63.8813016,16.65026727,-99999.0,'11111222,11111222,99999999' 
TABS,ioos:station:wmo:42045:1,2013-03-02T09:00:00Z,26.2168,-96.4998,2.0,62.74783975,14.91564615,-99999.0,'11111222,11111222,99999999' 
TABS,ioos:station:wmo:42045:1,2013-03-02T09:30:00Z,26.2168,-96.4998,2.0,84.3243859,13.04394496,-99999.0,'11111222,11111222,99999999' 
TABS,ioos:station:wmo:42045:1,2013-03-02T10:00:00Z,26.2168,-96.4998,2.0,61.80202476,10.20061273,-99999.0,'11111222,11111222,99999999' 
TABS,ioos:station:wmo:42045:1,2013-03-02T10:30:00Z,26.2168,-96.4998,2.0,85.9671242,13.93450394,-99999.0,'11111222,11111222,99999999' 
TABS,ioos:station:wmo:42045:1,2013-03-02T11:00:00Z,26.2168,-96.4998,2.0,77.2287873,13.84245643,-99999.0,'11111222,11111222,99999999' 
TABS,ioos:station:wmo:42045:1,2013-03-02T11:30:00Z,26.2168,-96.4998,2.0,122.8686021,5.417204076,-99999.0,'11133222,11111222,99999999' 
TABS,ioos:station:wmo:42045:1,2013-03-02T12:00:00Z,26.2168,-96.4998,2.0,107.1727121,12.63320229,-99999.0,'11111222,11111222,99999999' 
TABS,ioos:station:wmo:42045:1,2013-03-02T12:30:00Z,26.2168,-96.4998,2.0,116.1052788,10.59035882,-99999.0,'11111222,11111222,99999999' 
TABS,ioos:station:wmo:42045:1,2013-03-02T13:00:00Z,26.2168,-96.4998,2.0,116.2231097,12.74134216,-99999.0,'11111222,11111222,99999999' 
TABS,ioos:station:wmo:42045:1,2013-03-02T13:30:00Z,26.2168,-96.4998,2.0,149.0412216,19.20612663,-99999.0,'11111222,11111222,99999999' 
TABS,ioos:station:wmo:42045:1,2013-03-02T14:00:00Z,26.2168,-96.4998,2.0,161.8824336,19.97009013,-99999.0,'11111222,11111222,99999999' 
TABS,ioos:station:wmo:42045:1,2013-03-02T14:30:00Z,26.2168,-96.4998,2.0,168.3196555,27.31562556,-99999.0,'11111222,11111222,99999999' 
TABS,ioos:station:wmo:42045:1,2013-03-02T15:00:00Z,26.2168,-96.4998,2.0,168.5587724,22.28277362,-99999.0,'11111222,11111222,99999999' 
TABS,ioos:station:wmo:42045:1,2013-03-02T15:30:00Z,26.2168,-96.4998,2.0,160.1146709,31.98719744,-99999.0,'11111222,11111222,99999999' 
TABS,ioos:station:wmo:42045:1,2013-03-02T16:00:00Z,26.2168,-96.4998,2.0,171.8900274,31.89900312,-99999.0,'11111222,11111222,99999999' 
TABS,ioos:station:wmo:42045:1,2013-03-02T16:30:00Z,26.2168,-96.4998,2.0,179.7094425,29.60038007,-99999.0,'11111222,11111222,99999999' 
TABS,ioos:station:wmo:42045:1,2013-03-02T17:00:00Z,26.2168,-96.4998,2.0,175.6251324,32.90586878,-99999.0,'11111222,11111222,99999999' 
TABS,ioos:station:wmo:42045:1,2013-03-02T17:30:00Z,26.2168,-96.4998,2.0,190.2463037,36.03470133,-99999.0,'11111222,11111222,99999999' 
TABS,ioos:station:wmo:42045:1,2013-03-02T18:00:00Z,26.2168,-96.4998,2.0,185.8214101,39.53389685,-99999.0,'11111222,11111222,99999999' 
TABS,ioos:station:wmo:42045:1,2013-03-02T18:30:00Z,26.2168,-96.4998,2.0,185.8356195,35.50400682,-99999.0,'11111222,11111222,99999999' 
TABS,ioos:station:wmo:42045:1,2013-03-02T19:00:00Z,26.2168,-96.4998,2.0,193.6282996,32.72130957,-99999.0,'11111222,11111222,99999999' 
TABS,ioos:station:wmo:42045:1,2013-03-02T19:30:00Z,26.2168,-96.4998,2.0,193.5535219,38.01880719,-99999.0,'11111222,11111222,99999999' 
TABS,ioos:station:wmo:42045:1,2013-03-02T20:00:00Z,26.2168,-96.4998,2.0,194.0360002,40.90120781,-99999.0,'11111222,11111222,99999999' 
TABS,ioos:station:wmo:42045:1,2013-03-02T20:30:00Z,26.2168,-96.4998,2.0,192.8756017,37.96461115,-99999.0,'11111222,11111222,99999999' 
TABS,ioos:station:wmo:42045:1,2013-03-02T21:00:00Z,26.2168,-96.4998,2.0,206.7329196,44.19383781,-99999.0,'11111222,11111222,99999999' 
TABS,ioos:station:wmo:42045:1,2013-03-02T21:30:00Z,26.2168,-96.4998,2.0,210.5783126,35.4615637,-99999.0,'11111222,11111222,99999999' 
TABS,ioos:station:wmo:42045:1,2013-03-02T22:00:00Z,26.2168,-96.4998,2.0,215.1147728,33.56974382,-99999.0,'11111222,11111222,99999999' 
TABS,ioos:station:wmo:42045:1,2013-03-02T22:30:00Z,26.2168,-96.4998,2.0,216.6672005,35.66822255,-99999.0,'11111222,11111222,99999999' 
TABS,ioos:station:wmo:42045:1,2013-03-02T23:00:00Z,26.2168,-96.4998,2.0,221.5743104,27.45651107,-99999.0,'11111222,11111222,99999999' 
TABS,ioos:station:wmo:42045:1,2013-03-02T23:30:00Z,26.2168,-96.4998,2.0,223.9052993,34.06047563,-99999.0,'11111222,11111222,99999999' 
TABS,ioos:station:wmo:42045:1,2013-03-03T00:00:00Z,26.2168,-96.4998,2.0,226.1252187,28.43825065,-99999.0,'11111222,11111222,99999999' 
TABS,ioos:station:wmo:42045:1,2013-03-03T00:30:00Z,26.2168,-96.4998,2.0,234.9837407,25.53136502,-99999.0,'11111222,11111222,99999999' 
TABS,ioos:station:wmo:42045:1,2013-03-03T01:00:00Z,26.2168,-96.4998,2.0,242.7653468,26.41870928,-99999.0,'11111222,11111222,99999999' 
TABS,ioos:station:wmo:42045:1,2013-03-03T01:30:00Z,26.2168,-96.4998,2.0,245.5847057,27.77362958,-99999.0,'11111222,11111222,99999999' 
TABS,ioos:station:wmo:42045:1,2013-03-03T02:00:00Z,26.2168,-96.4998,2.0,236.2358249,23.69681202,-99999.0,'11111222,11111222,99999999' 
TABS,ioos:station:wmo:42045:1,2013-03-03T02:30:00Z,26.2168,-96.4998,2.0,240.1610246,18.95253281,-99999.0,'11111222,11111222,99999999' 
TABS,ioos:station:wmo:42045:1,2013-03-03T03:00:00Z,26.2168,-96.4998,2.0,253.8034499,20.39961274,-99999.0,'11111222,11111222,99999999' 
TABS,ioos:station:wmo:42045:1,2013-03-03T03:30:00Z,26.2168,-96.4998,2.0,268.3973215,27.18062729,-99999.0,'11111222,11111222,99999999' 
TABS,ioos:station:wmo:42045:1,2013-03-03T04:00:00Z,26.2168,-96.4998,2.0,279.412491,22.50294203,-99999.0,'11111222,11111222,99999999' 
TABS,ioos:station:wmo:42045:1,2013-03-03T04:30:00Z,26.2168,-96.4998,2.0,298.4569298,26.14941108,-99999.0,'11111222,11111222,99999999' 
TABS,ioos:station:wmo:42045:1,2013-03-03T05:00:00Z,26.2168,-96.4998,2.0,276.3034508,17.03296216,-99999.0,'11111222,11111222,99999999' 
TABS,ioos:station:wmo:42045:1,2013-03-03T05:30:00Z,26.2168,-96.4998,2.0,285.4660784,13.1252619,-99999.0,'11111222,11111222,99999999' 
TABS,ioos:station:wmo:42045:1,2013-03-03T06:00:00Z,26.2168,-96.4998,2.0,271.0143973,13.56212373,-99999.0,'11111222,11111222,99999999' 
TABS,ioos:station:wmo:42045:1,2013-03-03T06:30:00Z,26.2168,-96.4998,2.0,273.1903495,6.289745623,-99999.0,'11133222,11111222,99999999' 
TABS,ioos:station:wmo:42045:1,2013-03-03T07:00:00Z,26.2168,-96.4998,2.0,253.2370638,5.200999904,-99999.0,'11133222,11111222,99999999' 
TABS,ioos:station:wmo:42045:1,2013-03-03T07:30:00Z,26.2168,-96.4998,2.0,250.8855927,5.069487154,-99999.0,'11133222,11111222,99999999' 
TABS,ioos:station:wmo:42045:1,2013-03-03T08:00:00Z,26.2168,-96.4998,2.0,288.723242,6.293011997,-99999.0,'11133222,11111222,99999999' 
TABS,ioos:station:wmo:42045:1,2013-03-03T08:30:00Z,26.2168,-96.4998,2.0,279.4997337,5.089793709,-99999.0,'11133222,11111222,99999999' 
TABS,ioos:station:wmo:42045:1,2013-03-03T09:00:00Z,26.2168,-96.4998,2.0,317.3665581,8.563293759,-99999.0,'11133222,11111222,99999999' 
TABS,ioos:station:wmo:42045:1,2013-03-03T09:30:00Z,26.2168,-96.4998,2.0,33.96477687,1.736231551,-99999.0,'11133222,11111222,99999999' 
TABS,ioos:station:wmo:42045:1,2013-03-03T10:00:00Z,26.2168,-96.4998,2.0,309.9531125,2.491605908,-99999.0,'11133222,11111222,99999999' 
TABS,ioos:station:wmo:42045:1,2013-03-03T10:30:00Z,26.2168,-96.4998,2.0,40.48612733,1.078146558,-99999.0,'11133222,11111222,99999999' 
TABS,ioos:station:wmo:42045:1,2013-03-03T11:00:00Z,26.2168,-96.4998,2.0,223.0582025,0.834865259,-99999.0,'11133222,11111222,99999999' 
TABS,ioos:station:wmo:42045:1,2013-03-03T11:30:00Z,26.2168,-96.4998,2.0,56.52803016,3.644406673,-99999.0,'11133222,11111222,99999999' 
TABS,ioos:station:wmo:42045:1,2013-03-03T12:00:00Z,26.2168,-96.4998,2.0,86.09270555,5.723303242,-99999.0,'11133222,11111222,99999999' 
TABS,ioos:station:wmo:42045:1,2013-03-03T12:30:00Z,26.2168,-96.4998,2.0,90.37993903,7.540165781,-99999.0,'11133222,11111222,99999999' 
TABS,ioos:station:wmo:42045:1,2013-03-03T13:00:00Z,26.2168,-96.4998,2.0,81.87839611,9.555841146,-99999.0,'11133222,11111222,99999999' 
TABS,ioos:station:wmo:42045:1,2013-03-03T13:30:00Z,26.2168,-96.4998,2.0,86.51514571,12.50311961,-99999.0,'11111222,11111222,99999999' 
TABS,ioos:station:wmo:42045:1,2013-03-03T14:00:00Z,26.2168,-96.4998,2.0,80.36885273,18.40947854,-99999.0,'11111222,11111222,99999999' 
TABS,ioos:station:wmo:42045:1,2013-03-03T14:30:00Z,26.2168,-96.4998,2.0,74.51676987,16.51951876,-99999.0,'11111222,11111222,99999999' 
TABS,ioos:station:wmo:42045:1,2013-03-03T15:00:00Z,26.2168,-96.4998,2.0,78.80240677,21.00996192,-99999.0,'11111222,11111222,99999999' 
TABS,ioos:station:wmo:42045:1,2013-03-03T15:30:00Z,26.2168,-96.4998,2.0,83.73009571,21.60925728,-99999.0,'11111222,11111222,99999999' 
TABS,ioos:station:wmo:42045:1,2013-03-03T16:00:00Z,26.2168,-96.4998,2.0,88.03093377,23.57391991,-99999.0,'11111222,11111222,99999999' 
TABS,ioos:station:wmo:42045:1,2013-03-03T16:30:00Z,26.2168,-96.4998,2.0,93.32474641,22.58801895,-99999.0,'11111222,11111222,99999999' 
TABS,ioos:station:wmo:42045:1,2013-03-03T17:00:00Z,26.2168,-96.4998,2.0,91.88494163,25.23365412,-99999.0,'11111222,11111222,99999999' 
TABS,ioos:station:wmo:42045:1,2013-03-03T17:30:00Z,26.2168,-96.4998,2.0,90.70599724,26.78203316,-99999.0,'11111222,11111222,99999999' 
TABS,ioos:station:wmo:42045:1,2013-03-03T18:00:00Z,26.2168,-96.4998,2.0,85.77027283,28.60791848,-99999.0,'11111222,11111222,99999999' 
TABS,ioos:station:wmo:42045:1,2013-03-03T18:30:00Z,26.2168,-96.4998,2.0,92.26536393,26.31056252,-99999.0,'11111222,11111222,99999999' 
TABS,ioos:station:wmo:42045:1,2013-03-03T19:00:00Z,26.2168,-96.4998,2.0,86.55068166,28.42148835,-99999.0,'11111222,11111222,99999999' 
TABS,ioos:station:wmo:42045:1,2013-03-03T19:30:00Z,26.2168,-96.4998,2.0,82.65103595,26.97155909,-99999.0,'11111222,11111222,99999999' 
TABS,ioos:station:wmo:42045:1,2013-03-03T20:00:00Z,26.2168,-96.4998,2.0,74.49278874,29.09931271,-99999.0,'11111222,11111222,99999999' 
TABS,ioos:station:wmo:42045:1,2013-03-03T20:30:00Z,26.2168,-96.4998,2.0,70.41467893,26.46094858,-99999.0,'11111222,11111222,99999999' 
TABS,ioos:station:wmo:42045:1,2013-03-03T21:00:00Z,26.2168,-96.4998,2.0,69.96415828,28.75000174,-99999.0,'11111222,11111222,99999999' 
TABS,ioos:station:wmo:42045:1,2013-03-03T21:30:00Z,26.2168,-96.4998,2.0,75.34232973,26.83329462,-99999.0,'11111222,11111222,99999999' 
TABS,ioos:station:wmo:42045:1,2013-03-03T22:00:00Z,26.2168,-96.4998,2.0,75.93192304,26.16474728,-99999.0,'11111222,11111222,99999999' 
TABS,ioos:station:wmo:42045:1,2013-03-03T22:30:00Z,26.2168,-96.4998,2.0,84.00251889,23.44834536,-99999.0,'11111222,11111222,99999999' 
TABS,ioos:station:wmo:42045:1,2013-03-03T23:00:00Z,26.2168,-96.4998,2.0,79.4091204,22.03538291,-99999.0,'11111222,11111222,99999999' 
TABS,ioos:station:wmo:42045:1,2013-03-03T23:30:00Z,26.2168,-96.4998,2.0,75.40098186,20.98762016,-99999.0,'11111222,11111222,99999999' 
TABS,ioos:station:wmo:42045:1,2013-03-04T00:00:00Z,26.2168,-96.4998,2.0,74.44482393,17.75014366,-99999.0,'11111222,11111222,99999999' 
TABS,ioos:station:wmo:42045:1,2013-03-04T00:30:00Z,26.2168,-96.4998,2.0,84.66077568,12.89595285,-99999.0,'11111222,11111222,99999999' 
TABS,ioos:station:wmo:42045:1,2013-03-04T01:00:00Z,26.2168,-96.4998,2.0,91.51741058,10.57370796,-99999.0,'11111222,11111222,99999999' 
TABS,ioos:station:wmo:42045:1,2013-03-04T01:30:00Z,26.2168,-96.4998,2.0,57.98165508,9.317381606,-99999.0,'11133222,11111222,99999999' 
TABS,ioos:station:wmo:42045:1,2013-03-04T02:00:00Z,26.2168,-96.4998,2.0,64.13146881,6.990464934,-99999.0,'11133222,11111222,99999999' 
TABS,ioos:station:wmo:42045:1,2013-03-04T02:30:00Z,26.2168,-96.4998,2.0,47.78788172,10.03157515,-99999.0,'11111222,11111222,99999999' 
TABS,ioos:station:wmo:42045:1,2013-03-04T03:00:00Z,26.2168,-96.4998,2.0,44.22378898,5.218927093,-99999.0,'11133222,11111222,99999999' 
TABS,ioos:station:wmo:42045:1,2013-03-04T03:30:00Z,26.2168,-96.4998,2.0,31.74804607,8.020024938,-99999.0,'11133222,11111222,99999999' 
TABS,ioos:station:wmo:42045:1,2013-03-04T04:00:00Z,26.2168,-96.4998,2.0,355.2094855,10.53681166,-99999.0,'11111222,11111222,99999999' 
TABS,ioos:station:wmo:42045:1,2013-03-04T04:30:00Z,26.2168,-96.4998,2.0,18.79795076,10.98597287,-99999.0,'11111222,11111222,99999999' 
TABS,ioos:station:wmo:42045:1,2013-03-04T05:00:00Z,26.2168,-96.4998,2.0,12.31075049,7.973336817,-99999.0,'11133222,11111222,99999999' 
TABS,ioos:station:wmo:42045:1,2013-03-04T05:30:00Z,26.2168,-96.4998,2.0,358.931884,8.581491712,-99999.0,'11133222,11111222,99999999' 
TABS,ioos:station:wmo:42045:1,2013-03-04T06:00:00Z,26.2168,-96.4998,2.0,11.6360974,7.238763707,-99999.0,'11133222,11111222,99999999' 
TABS,ioos:station:wmo:42045:1,2013-03-04T06:30:00Z,26.2168,-96.4998,2.0,4.479223061,12.03676036,-99999.0,'11111222,11111222,99999999' 
TABS,ioos:station:wmo:42045:1,2013-03-04T07:00:00Z,26.2168,-96.4998,2.0,3.424362773,16.91018924,-99999.0,'11111222,11111222,99999999' 
TABS,ioos:station:wmo:42045:1,2013-03-04T07:30:00Z,26.2168,-96.4998,2.0,358.333898,19.25814373,-99999.0,'11111222,11111222,99999999' 
TABS,ioos:station:wmo:42045:1,2013-03-04T08:00:00Z,26.2168,-96.4998,2.0,9.512725817,18.75793166,-99999.0,'11111222,11111222,99999999' 
TABS,ioos:station:wmo:42045:1,2013-03-04T08:30:00Z,26.2168,-96.4998,2.0,358.7872917,24.56550427,-99999.0,'11111222,11111222,99999999' 
TABS,ioos:station:wmo:42045:1,2013-03-04T09:00:00Z,26.2168,-96.4998,2.0,356.8592459,22.08317459,-99999.0,'11111222,11111222,99999999' 
TABS,ioos:station:wmo:42045:1,2013-03-04T09:30:00Z,26.2168,-96.4998,2.0,358.0750313,23.81344158,-99999.0,'11111222,11111222,99999999' 
TABS,ioos:station:wmo:42045:1,2013-03-04T10:00:00Z,26.2168,-96.4998,2.0,9.369399014,32.37184734,-99999.0,'11111222,11111222,99999999' 
TABS,ioos:station:wmo:42045:1,2013-03-04T10:30:00Z,26.2168,-96.4998,2.0,2.867510579,29.18653971,-99999.0,'11111222,11111222,99999999' 
TABS,ioos:station:wmo:42045:1,2013-03-04T11:00:00Z,26.2168,-96.4998,2.0,13.76130931,32.83242604,-99999.0,'11111222,11111222,99999999' 
TABS,ioos:station:wmo:42045:1,2013-03-04T11:30:00Z,26.2168,-96.4998,2.0,8.785654501,31.03411832,-99999.0,'11111222,11111222,99999999' 
TABS,ioos:station:wmo:42045:1,2013-03-04T12:00:00Z,26.2168,-96.4998,2.0,9.731962209,34.60801352,-99999.0,'11111222,11111222,99999999' 
TABS,ioos:station:wmo:42045:1,2013-03-04T12:30:00Z,26.2168,-96.4998,2.0,12.60201211,31.48856618,-99999.0,'11111222,11111222,99999999' 
TABS,ioos:station:wmo:42045:1,2013-03-04T13:00:00Z,26.2168,-96.4998,2.0,21.50229897,45.86180328,-99999.0,'11111222,11111222,99999999' 
TABS,ioos:station:wmo:42045:1,2013-03-04T13:30:00Z,26.2168,-96.4998,2.0,22.90978929,44.26133527,-99999.0,'11111222,11111222,99999999' 
TABS,ioos:station:wmo:42045:1,2013-03-04T14:00:00Z,26.2168,-96.4998,2.0,20.91672997,47.617963,-99999.0,'11111222,11111222,99999999' 
TABS,ioos:station:wmo:42045:1,2013-03-04T14:30:00Z,26.2168,-96.4998,2.0,22.30501787,50.5092249,-99999.0,'11111222,11111222,99999999' 
TABS,ioos:station:wmo:42045:1,2013-03-04T15:00:00Z,26.2168,-96.4998,2.0,23.22224299,51.23052215,-99999.0,'11111222,11111222,99999999' 
TABS,ioos:station:wmo:42045:1,2013-03-04T15:30:00Z,26.2168,-96.4998,2.0,19.85976988,51.13086152,-99999.0,'11111222,11111222,99999999' 
TABS,ioos:station:wmo:42045:1,2013-03-04T16:00:00Z,26.2168,-96.4998,2.0,21.39748156,52.1334058,-99999.0,'11111222,11111222,99999999' 